EHI
0 0 0 0 0 0 0 0 0 0 0 0 0 0 0 0 0 0 0 0 0 0 0 0 0 0 0 0 0 0 0 0 0 0 0 0 0 0 0 0 0 0 0 0
0 0 0 0 0 0 0 0 0 0 0 0 0 0 0 0 0 0 0 0 0 0 0 0 0 0 0 0 0 0 0 0 0 0 0 0 0 0 0 0 0 0 0 0
0 0 0 0 0 0 0 0 0 0 0 0 0 0 0 0 0 0 0 0 0 0 0 0 0 0 0 0 0 0 0 0 0 0 0 0 0 0 0 0 0 0 0 0
0 0 0 0 0 0 0 0 0 0 0 0 0 0 0 0 0 0 0 0 0 0 0 0 0 0 0 0 0 0 0 0 0 0 0 0 0 0 0 0 0 0 0 0
0 0 0 0 0 0 0 0 0 0 0 0 0 0 0 0 0 0 0 0 0 0 0 0 0 0 0 0 0 0 0 0 0 0 0 0 0 0 0 0 0 0 0 0
0 0 0 0 0 0 0 0 0 0 0 0 0 0 0 0 0 0 0 0 0 0 0 0 0 0 0 0 0 0 0 0 0 0 0 0 0 0 0 0 0 0 0 0
0 0 0 0 0 0 0 0 0 0 0 0 0 0 0 0 0 0 0 0 0 0 0 0 0 0 0 0 0 0 0 0 0 0 0 0 0 0 0 0 0 0 0 0
0 0 0 0 0 0 0 0 0 0 0 0 0 0 0 0 0 0 0 0 0 0 0 0 0 0 0 0 0 0 0 0 0 0 0 0 0 0 0 0 0 0 0 0
0 0 0 0 0 0 0 0 0 0 0 0 0 0 0 0 0 0 0 0 0 0 0 0 0 0 0 0 0 0 0 0 0 0 0 0 0 0 0 0 0 0 0 0
0 0 0 0 0 0 0 0 0 0 0 0 0 0 0 0 0 0 0 0 0 0 0 0 0 0 0 0 0 0 0 0 0 0 0 0 0 0 0 0 0 0 0 0
0 0 0 0 0 0 0 0 0 0 0 0 0 0 0 0 0 0 0 0 0 0 0 0 0 0 0 0 0 0 0 0 0 0 0 0 0 0 0 0 0 0 0 0
0 0 0 0 0 0 0 0 0 0 0 0 0 0 0 0 0 0 0 0 0 0 0 0 0 0 0 0 0 0 0 0 0 0 0 0 0 0 0 0 0 0 0 0
0 0 0 0 0 0 0 0 0 0 0 0 0 0 0 0 0 0 0 0 0 0 0 0 0 0 0 0 0 0 0 0 0 0 0 0 0 0 0 0 0 0 0 0
0 0 0 0 0 0 0 0 0 0 0 0 0 0 0 0 0 0 0 0 0 0 0 0 0 0 0 0 0 0 0 0 0 0 0 0 0 0 0 0 0 0 0 0
0 0 0 0 0 0 0 0 0 0 0 0 0 0 0 0 0 0 0 0 0 0 0 0 0 0 0 0 0 0 0 0 0 0 0 0 0 0 0 0 0 0 0 0
0 0 0 0 0 0 0 0 0 0 0 0 0 0 0 0 0 0 0 0 0 0 0 0 0 0 0 0 0 0 0 0 0 0 0 0 0 0 0 0 0 0 0 0
0 0 0 0 0 0 0 0 0 0 0 0 0 0 0 0 0 0 0 0 0 0 0 0 0 0 0 0 0 0 0 0 0 0 0 0 0 0 0 0 0 0 0 0
0 0 0 0 0 0 0 0 0 0 0 0 0 0 0 0 0 0 0 0 0 0 0 0 0 0 0 0 0 0 0 0 0 0 0 0 0 0 0 0 0 0 0 0
0 0 0 0 0 0 0 0 0 0 0 0 0 0 0 0 0 0 0 0 0 0 0 0 0 0 0 0 0 0 0 0 0 0 0 0 0 0 0 0 0 0 0 0
0 0 0 0 0 0 0 0 0 0 0 0 0 0 0 0 0 0 0 0 0 0 0 0 0 0 0 0 0 0 0 0 0 0 0 0 0 0 0 0 0 0 0 0
0 0 0 0 0 0 0 0 0 0 0 0 0 0 0 0 0 0 0 0 0 0 0 0 0 0 0 0 0 0 0 0 0 0 0 0 0 0 0 0 0 0 0 0
0 0 0 0 0 0 0 0 0 0 0 0 0 0 0 0 0 0 0 0 0 0 0 0 0 0 0 0 0 0 0 0 0 0 0 0 0 0 0 0 0 0 0 0
0 0 0 0 0 0 0 0 0 0 0 0 0 0 0 0 0 0 0 0 0 0 0 0 0 0 0 0 0 0 0 0 0 0 0 0 0 0 0 0 0 0 0 0
0 0 0 0 0 0 0 0 0 0 0 0 0 0 0 0 0 0 0 0 0 0 0 0 0 0 0 0 0 0 0 0 0 0 0 0 0 0 0 0 0 0 0 0
0 0 0 0 0 0 0 0 0 0 0 0 0 0 0 0 0 0 0 0 0 0 0 0 0 0 0 0 0 0 0 0 0 0 0 0 0 0 0 0 0 0 0 0
0 0 0 0 0 0 0 0 0 0 0 0 0 0 0 0 0 0 0 0 0 0 0 0 0 0 0 0 0 0 0 0 0 0 0 0 0 0 0 0 0 0 0 0
Wind_Speed
2 1 4 5 4 4 2 1 2 6 3 1 3 4 2 2 3 5 3 3 6 6 2 3 5 6 7 7 7 8 8 8 5 3 2 2 3 3 3 3 4 4 4 4
3 5 8 3 2 3 3 2 3 4 4 1 2 3 2 2 3 3 3 4 5 3 3 5 7 8 7 8 9 9 8 6 4 3 2 2 2 2 2 1 2 2 2 2
4 6 2 3 2 2 3 4 3 3 1 4 4 5 7 6 8 11 9 7 8 5 5 6 8 8 9 8 8 8 6 7 5 5 4 3 3 1 1 2 2 2 2 2
5 5 2 1 3 5 2 2 3 3 3 2 3 1 2 4 9 11 10 9 10 9 9 9 9 8 8 7 8 8 7 7 5 5 4 4 2 1 2 3 3 3 4 5
5 2 1 1 2 5 3 4 3 4 4 2 4 2 4 6 8 8 8 9 10 9 10 10 10 9 9 7 7 7 7 7 5 5 5 4 2 1 2 2 4 5 5 5
4 2 1 1 2 2 6 6 7 6 5 2 1 1 4 6 6 4 5 8 8 9 10 11 10 9 8 7 6 6 7 6 4 5 4 3 2 2 3 4 4 5 5 5
2 2 2 1 4 3 5 6 3 3 2 2 1 3 2 7 9 2 3 6 9 9 9 9 9 7 7 6 6 5 6 5 6 6 6 5 5 4 4 4 4 5 5 5
3 3 1 1 3 6 3 7 7 5 4 3 1 2 1 3 6 6 7 7 9 9 8 8 9 8 8 7 7 7 6 7 8 8 7 7 6 4 3 3 4 5 5 7
5 4 1 2 1 4 4 3 4 7 2 1 1 2 1 3 7 8 8 9 9 8 8 7 6 7 7 6 6 7 7 8 7 6 5 5 4 3 4 5 5 5 6 7
5 2 1 0 3 6 3 6 3 3 5 4 3 4 7 3 2 6 7 7 8 7 7 7 7 7 7 6 6 6 5 4 3 3 4 4 4 4 5 6 7 8 8 8
4 4 1 1 1 2 2 2 3 3 2 5 5 4 2 4 2 3 4 4 5 5 6 6 6 6 5 6 6 6 7 7 7 6 6 6 6 6 6 7 8 9 10 11
3 6 3 1 2 2 4 3 4 4 2 3 3 3 3 4 3 2 2 3 2 3 4 4 5 6 6 6 6 6 6 6 6 7 8 8 8 8 8 8 9 10 11 12
4 5 5 1 2 3 5 4 2 4 4 2 3 2 3 4 3 2 2 1 2 5 6 6 5 6 6 7 7 7 8 9 10 9 9 9 8 8 8 10 11 12 12 12
7 5 5 7 4 4 4 1 2 4 2 2 3 6 4 3 2 1 1 2 4 6 5 5 6 6 6 6 7 8 9 8 9 9 8 8 8 8 8 10 11 11 11 10
6 5 3 4 3 4 3 1 1 2 2 3 3 6 5 4 3 2 2 4 7 9 10 8 5 5 5 7 7 7 8 8 8 8 8 8 9 9 9 11 11 10 9 8
4 5 3 3 3 4 3 2 4 3 3 5 7 3 2 2 1 3 5 5 6 8 9 8 5 6 7 8 9 9 10 10 9 9 9 9 9 10 11 10 10 8 7 8
4 6 4 2 1 3 1 1 3 3 2 5 4 4 4 2 2 4 4 6 6 7 8 6 6 7 8 9 9 10 11 11 10 10 11 10 10 10 9 9 8 7 8 10
6 6 5 3 2 3 5 2 5 7 2 2 5 5 4 3 2 4 4 4 6 5 5 5 7 8 8 8 9 10 11 10 10 11 11 11 9 8 8 6 6 7 8 10
5 7 5 4 3 1 3 2 5 4 1 2 4 4 3 1 3 7 5 2 2 2 3 4 4 5 6 8 10 11 11 10 10 10 11 10 8 7 7 7 9 8 8 10
5 5 6 4 5 7 6 5 4 4 1 6 6 6 4 2 1 6 4 2 4 4 3 3 5 6 6 8 9 9 9 9 9 10 9 8 8 8 8 8 7 5 5 7
4 4 4 4 2 3 3 5 6 4 5 7 6 5 3 4 6 2 2 3 3 2 2 4 6 5 5 6 7 8 9 9 10 9 8 7 7 7 7 6 5 6 6 7
6 5 4 4 3 5 7 6 5 5 4 4 4 4 4 4 3 2 2 2 2 3 4 5 5 5 5 5 6 7 8 10 9 8 7 7 7 6 6 7 7 7 7 8
2 4 5 4 3 2 5 4 4 5 5 5 4 4 2 2 1 1 1 1 2 3 4 4 4 4 5 4 4 7 9 9 8 6 6 5 6 6 6 6 7 6 6 6
0 1 4 3 1 2 3 3 4 3 4 4 3 3 3 1 2 1 1 2 3 4 4 4 4 4 5 6 6 7 9 7 6 5 5 5 6 6 6 5 4 5 6 7
2 3 5 4 2 3 1 3 5 3 3 3 3 2 3 3 2 1 1 2 2 3 3 3 4 4 6 8 9 9 8 6 5 4 4 4 4 4 5 6 4 4 3 4
1 4 5 4 5 5 4 3 3 4 4 5 4 4 4 3 2 1 1 1 1 2 3 4 5 6 7 8 10 10 8 6 4 4 3 3 3 4 5 6 4 5 5 8
Wind_Direction
10 30 244 228 191 186 181 231 283 278 279 1 272 271 278 156 184 217 243 267 263 259 246 155 116 104 94 83 72 51 48 47 54 58 63 74 67 63 58 47 48 55 54 51
17 265 247 231 192 182 189 209 248 274 329 41 333 340 348 71 47 26 311 277 297 310 57 81 92 94 90 89 91 89 96 100 91 90 79 89 104 122 132 113 62 59 65 58
193 246 231 198 209 170 183 178 186 198 350 35 34 354 2 13 22 22 24 43 37 42 60 58 66 77 83 82 87 94 105 105 111 125 115 93 85 50 342 328 322 319 334 329
238 256 248 210 209 142 179 165 134 105 80 0 43 248 9 23 29 13 3 26 29 25 38 43 49 56 66 76 86 100 110 109 114 123 124 109 87 318 296 298 302 317 334 337
238 242 154 190 204 152 169 104 73 72 83 61 14 68 312 5 27 17 5 22 28 29 43 49 51 60 65 74 86 91 87 75 60 55 52 60 50 302 294 306 318 327 331 340
247 259 234 203 57 87 123 79 44 41 58 71 225 124 318 354 325 344 3 22 26 29 41 49 53 62 61 59 68 75 82 71 58 59 49 58 19 331 331 329 332 331 325 326
288 298 311 65 80 44 79 93 46 4 26 233 192 120 279 322 333 24 50 28 26 27 33 46 56 59 59 55 53 57 63 47 34 42 41 39 34 24 2 344 332 321 319 318
185 229 271 344 162 157 143 135 159 181 189 261 43 115 212 358 5 18 36 39 42 40 42 48 44 37 26 22 28 38 43 39 31 32 37 46 42 33 2 327 309 300 300 303
180 215 332 19 59 107 143 127 129 116 95 232 188 128 158 48 27 18 31 37 32 30 37 44 36 24 15 20 32 37 45 46 42 43 43 39 21 353 314 296 280 278 285 295
186 199 247 26 53 40 98 129 116 119 154 208 246 212 189 154 38 25 22 23 19 20 23 16 12 16 18 26 38 45 53 56 44 32 20 3 340 318 312 311 311 309 303 295
132 160 222 346 118 169 91 64 88 125 148 182 208 241 179 152 141 59 21 32 34 17 10 9 9 11 21 27 31 29 22 16 13 3 354 346 336 328 319 310 306 302 298 288
131 116 103 10 324 51 95 111 126 151 195 148 183 217 122 110 76 42 44 71 35 355 346 347 354 7 18 15 12 12 6 0 353 347 344 340 329 320 311 302 298 298 294 288
142 110 108 56 292 31 51 29 84 103 95 148 170 209 144 101 85 84 141 173 315 325 331 335 350 4 4 1 358 358 358 355 346 338 330 319 308 305 305 305 303 301 299 296
93 95 139 167 180 137 105 44 54 86 120 173 193 160 169 141 145 163 205 258 297 302 314 341 357 351 345 347 350 351 346 339 327 317 304 296 292 295 301 303 305 306 305 309
73 95 87 64 75 87 103 172 120 113 162 166 146 140 168 175 193 220 277 336 338 336 337 348 0 346 343 343 345 344 333 326 317 308 306 308 310 307 312 316 317 318 323 333
62 102 102 56 48 94 100 121 120 99 99 95 103 104 186 197 247 314 327 323 308 308 308 310 328 353 348 344 341 334 329 326 324 318 315 318 323 324 322 320 322 324 330 337
76 105 106 124 48 70 317 252 153 130 137 149 163 181 175 196 275 286 279 256 253 279 293 320 3 2 347 340 332 321 317 319 322 317 312 315 318 318 321 328 337 343 333 329
109 99 99 122 124 231 284 285 119 103 57 112 124 158 186 210 259 289 271 251 262 291 323 359 6 350 336 324 317 316 317 320 318 314 315 318 318 317 326 336 341 334 325 327
94 127 112 135 136 169 275 168 145 132 185 213 163 191 225 291 353 298 278 230 249 357 40 31 353 319 315 320 322 323 319 321 317 318 322 325 325 329 334 339 333 332 335 339
56 81 111 141 157 205 210 177 170 124 205 214 193 204 215 130 248 275 297 64 72 49 28 346 323 313 323 325 320 318 316 318 321 325 328 333 343 347 343 337 333 341 349 344
83 65 110 142 169 236 193 145 139 162 204 191 197 212 193 189 228 253 73 80 68 25 320 325 324 325 325 313 317 321 319 326 327 330 333 343 355 358 356 356 1 360 357 352
158 141 151 138 159 214 161 140 171 166 146 168 188 203 204 233 282 4 99 101 38 341 329 334 330 325 307 309 320 323 326 325 327 334 346 358 7 14 12 15 5 4 8 6
179 166 163 165 194 156 148 153 147 136 140 170 178 188 200 242 242 145 76 26 345 336 325 329 324 323 312 312 322 321 312 318 322 337 2 9 11 11 7 8 360 358 10 14
71 107 99 104 83 136 153 112 129 147 160 169 171 166 153 154 118 114 43 2 341 331 335 338 341 329 306 312 315 299 297 308 320 342 355 3 9 4 2 2 5 12 14 4
180 114 99 87 114 87 148 163 157 173 171 151 118 92 100 111 114 84 26 349 331 341 339 341 339 319 303 307 305 300 296 300 314 328 337 346 352 359 1 357 355 13 9 341
192 150 145 177 183 158 188 172 156 181 193 167 135 99 81 110 153 145 94 312 319 343 340 348 337 319 305 307 308 305 301 295 290 293 300 316 334 349 353 354 358 10 19 13